Home > Weather > Ittoqqortoormiit > Past weeks

Flag for Greenland Past Weather in Ittoqqortoormiit, Greenland — Yesterday and Last 2 Weeks

Now
46 °F

Low clouds.


Feels Like: 45 °F
Forecast: 39 / 51 °F
Wind: 3 mph from West

Location: Scoresbysund

Current Time: Jul 25, 2016 at 12:06:00 PM

Latest Report: Jul 25, 2016 at 11:00 AM


Visibility: 0 mi

Pressure: 30.15 "Hg

Humidity: 97%

Dew Point: 46 °F

Location of IttoqqortoormiitLocation

Past Weather in Ittoqqortoormiit — Graph

°F

Ittoqqortoormiit Temperature Yesterday

Maximum temperature yesterday: 52 °F (at 12:00 AM)
Minimum temperature yesterday: 44 °F (at 4:00 AM)
Average temperature yesterday: 48 °F

High & Low Weather Summary for the Past Weeks

 TemperatureHumidityPressure
High61 °F (Jul 22, 6:00 PM)100% (Jul 25, 12:00 AM)30.22 "Hg (Jul 25, 12:00 AM)
Low37 °F (Jul 17, 2:00 AM)32% (Jul 22, 9:00 PM)29.77 "Hg (Jul 17, 1:00 AM)
Average47 °F72%29.97 "Hg
* Reported Jul 10 9:00 AM — Jul 25 9:00 AM, Ittoqqortoormiit, Weather by CustomWeather, © 2016

Note: Actual official high and low records may vary slightly from our data, if they occured in-between our weather recording intervals... More about our weather records

Advertising

Ittoqqortoormiit Weather History for the Previous 24 Hours

Scroll right to see more
 ConditionsComfort  
Time TempWeatherWind HumidityBarometerVisibility
9:00 AM
Mon, Jul 25
47 °FDense fog.2 mph98%30.15 "Hg1 mi
8:00 AM47 °FFog.1 mph97%30.15 "Hg3 mi
7:00 AM47 °FScattered clouds.1 mph95%30.15 "Hg31 mi
6:00 AM48 °FScattered clouds.2 mph88%30.14 "Hg31 mi
4:00 AM45 °FLow clouds.2 mph95%30.16 "Hg31 mi
3:00 AM46 °FLow clouds.2 mph98%30.16 "Hg31 mi
2:00 AM46 °FLow clouds.1 mph100%30.18 "Hg4 mi
1:00 AM45 °FDense fog.1 mph100%30.19 "Hg0 mi
12:00 AM46 °FLow clouds.3 mph100%30.20 "Hg1 mi
11:00 PM
Sun, Jul 24
46 °FLow clouds.2 mph99%30.21 "Hg0 mi
10:00 PM47 °FOvercast.1 mph97%30.21 "Hg31 mi
9:00 PM47 °FOvercast.9 mph88%30.22 "Hg31 mi
8:00 PM49 °FOvercast.10 mph86%30.21 "Hg31 mi
7:00 PM50 °FOvercast.1 mph90%30.21 "Hg31 mi
6:00 PM50 °FOvercast.3 mph90%30.21 "Hg31 mi
5:00 PM47 °FOvercast.3 mph98%30.20 "Hg7 mi
4:00 PM49 °FOvercast.2 mph92%30.20 "Hg28 mi
3:00 PM48 °FOvercast.8 mph92%30.20 "Hg31 mi
2:00 PM49 °FOvercast.9 mph90%30.19 "Hg31 mi
1:00 PM50 °FOvercast.21 mph89%30.17 "Hg31 mi
12:00 PM49 °FOvercast.22 mph91%30.16 "Hg31 mi
Weather by CustomWeather, © 2016

See weather overviewHow to use our weather pages